Regional Weather Roundup
Issued by NWS Bismarck, ND

Home | Current Version | Previous Version | Text Only | Print | Product List | Glossary On
Versions: 1 2 3 4 5 6 7 8 9 10 11 12 13 14 15 16 17 18 19 20 21 22 23 24 25 26 27 28 29 30 31 32 33 34 35 36 37 38 39 40 41 42 43 44 45 46 47 48 49 50
000
ASUS43 KBIS 280510
RWRBIS

NWR BROADCAST TEXT
NATIONAL WEATHER SERVICE BISMARCK ND
1200 AM CDT THU MAY 28 2015

NOTE: "FAIR" INDICATES FEW OR NO CLOUDS BELOW 12,000 FEET WITH NO
SIGNIFICANT WEATHER AND/OR OBSTRUCTIONS TO VISIBILITY.


CITY           SKY/WX    TMP DP  RH WIND       PRES   REMARKS
WILLISTON      MOCLDY    57  53  86 NE7       29.92S
MINOT          LGT RAIN  60  56  86 E10       29.94S
MINOT AFB      LGT RAIN  60  60 100 E6        29.94S
BISMARCK       CLOUDY    61  59  93 E7        29.95F
DICKINSON      CLOUDY    57  54  89 S9        29.90S
GARRISON         N/A     60  58  92 E10       29.93F
HETTINGER ARPT FOG       53  52  96 CALM      29.95F VSB 1/2
JAMESTOWN      CLOUDY    62  56  80 E6        29.97S
BEACH          FAIR      50  50 100 S5        29.94F
CARRINGTON     LGT RAIN  59  59 100 E10       29.99F
CROSBY         CLOUDY    57  57 100 E7        29.94F
HARVEY         MOCLDY    59  59 100 E13       29.97S
HAZEN          CLOUDY    57  55  94 E8        29.93F
LINTON         FAIR      63  59  88 SE8       29.96F
MANDAN         FAIR      59  59 100 E10       29.95F
OAKES            N/A     64  59  82 E12       29.97F
STANLEY        CLOUDY    57  57 100 E6        29.94F
WATFORD CITY   FAIR      55  55 100 CALM      29.89F
$$

CITY           SKY/WX    TMP DP  RH WIND       PRES   REMARKS
GRAND FORKS    MOCLDY    60  52  74 CALM      29.98F
GRAND FORKS AF MOCLDY    60  52  75 SE1       29.99F
DEVILS LAKE    CLOUDY    63  52  67 S7        30.01R
FARGO          CLOUDY    65  55  70 E7        29.97F
CANDO          MOCLDY    64  52  63 SW22      30.03R
CAVALIER       FAIR      59  41  51 NE9       30.00S
GRAFTON        FAIR      57  46  67 NE8       29.99F
LANGDON        MOCLDY    59  43  55 E9        30.02R
ROLLA          MOCLDY    59  43  55 E10       30.00S
WALHALLA         N/A     59  39  47 MISG      30.01S
$$

CITY           SKY/WX    TMP DP  RH WIND       PRES   REMARKS
ABERDEEN       CLOUDY    66  55  67 SW6       29.97R
MOBRIDGE       CLOUDY    62  60  93 SE9       29.92F THUNDER
BUFFALO          N/A     54  53  97 NE6       29.89F
RAPID CITY     PTCLDY    59  56  89 CALM      29.95R
GLASGOW        MOCLDY    60  55  83 E6        29.89R
SIDNEY         MOCLDY    55  54  94 CALM      29.91F
WOLF POINT     CLOUDY    59  54  83 CALM      29.89F
GLENDIVE       MOCLDY    55  54  94 CALM      29.93S
MILES CITY     MOCLDY    56  55  97 W8        29.93R
BAKER          PTCLDY    54  52  93 CALM      29.95S
$$

CITY           SKY/WX    TMP DP  RH WIND       PRES   REMARKS
BILLINGS       PTCLDY    55  47  74 CALM      29.99R
GREAT FALLS    MOCLDY    54  46  74 NW5       29.99R
REGINA         MOCLDY    55  46  71 S5        29.95S
ESTEVAN        LGT RAIN  59  55  88 NE12      29.95F
$$



USA.gov is the U.S. government's official web portal to all federal, state and local government web resources and services.